TimeCEST,TemperatureF,Dew PointF,Humidity,Sea Level PressureIn,VisibilityMPH,Wind Direction,Wind SpeedMPH,Gust SpeedMPH,PrecipitationIn,Events,Conditions,WindDirDegrees,DateUTC
2:00 AM,43,37,71,,19,North,2.3,,,,Clear,350,2012-10-05 00:00:00
4:55 AM,42.8,32.0,66,30.18,-9999.0,North,2.3,-,N/A,,Clear,350,2012-10-05 02:55:00
5:00 AM,43,33,57,,19,North,2.3,,,,Clear,350,2012-10-05 03:00:00
5:55 AM,44.6,30.2,57,30.18,-9999.0,North,2.3,-,N/A,,Clear,0,2012-10-05 03:55:00
7:55 AM,41.0,35.6,81,30.18,-9999.0,SE,9.2,-,N/A,,Clear,130,2012-10-05 05:55:00
8:00 AM,42,36,71,,44,SE,9.2,,,,Clear,130,2012-10-05 06:00:00
8:55 AM,44.6,37.4,76,30.18,-9999.0,SE,9.2,-,N/A,,Clear,130,2012-10-05 06:55:00
9:55 AM,44.6,37.4,76,30.21,-9999.0,ESE,9.2,-,N/A,,Clear,110,2012-10-05 07:55:00
10:55 AM,46.4,39.2,76,30.18,-9999.0,SE,11.5,-,N/A,,Clear,130,2012-10-05 08:55:00
11:00 AM,46,39,68,,44,SE,11.5,,,,Clear,130,2012-10-05 09:00:00
11:55 AM,48.2,39.2,71,30.21,6.2,ESE,10.4,-,N/A,,Partly Cloudy,120,2012-10-05 09:55:00
12:55 PM,48.2,42.8,82,30.21,6.2,ESE,10.4,-,N/A,,Partly Cloudy,110,2012-10-05 10:55:00
1:55 PM,48.2,42.8,82,30.21,6.2,SE,11.5,-,N/A,,Scattered Clouds,130,2012-10-05 11:55:00
2:00 PM,48,43,76,,9,SE,11.5,,,,Partly Cloudy,130,2012-10-05 12:00:00
2:55 PM,48.2,44.6,87,30.21,6.2,ESE,12.7,-,N/A,,Scattered Clouds,120,2012-10-05 12:55:00
3:55 PM,46.4,41.0,81,30.21,6.2,SE,12.7,-,N/A,,Scattered Clouds,130,2012-10-05 13:55:00
5:00 PM,47,43,82,,16,SE,9.2,,,,Partly Cloudy,130,2012-10-05 15:00:00
5:55 PM,46.4,42.8,87,30.24,6.2,SE,9.2,-,N/A,,Mostly Cloudy,130,2012-10-05 15:55:00
6:55 PM,44.6,41.0,87,30.21,6.2,ESE,4.6,-,N/A,,Mostly Cloudy,110,2012-10-05 16:55:00
7:55 PM,44.6,41.0,87,30.24,6.2,ESE,5.8,-,N/A,,Mostly Cloudy,120,2012-10-05 17:55:00
8:00 PM,44,41,86,,6,ESE,5.8,,,,Mostly Cloudy,120,2012-10-05 18:00:00
10:55 PM,42.8,41.0,93,30.24,6.2,Calm,Calm,-,N/A,,Mostly Cloudy,0,2012-10-05 20:55:00
11:00 PM,44,40,82,,6,Calm,Calm,,,,Mostly Cloudy,,2012-10-05 21:00:00